TimePST,TemperatureF,Dew PointF,Humidity,Sea Level PressureIn,VisibilityMPH,Wind Direction,Wind SpeedMPH,Gust SpeedMPH,PrecipitationIn,Events,Conditions,WindDirDegrees,DateUTC
12:56 AM,52.0,18.0,26,29.88,10.0,SSW,10.4,-,N/A,,Scattered Clouds,200,2012-12-09 08:56:00
1:56 AM,54.0,19.9,26,29.90,10.0,West,12.7,-,N/A,,Clear,260,2012-12-09 09:56:00
2:56 AM,54.0,21.0,28,29.91,10.0,Variable,3.5,-,N/A,,Mostly Cloudy,0,2012-12-09 10:56:00
3:56 AM,54.0,21.0,28,29.92,10.0,East,3.5,-,N/A,,Mostly Cloudy,80,2012-12-09 11:56:00
4:56 AM,54.0,21.0,28,29.93,10.0,Calm,Calm,-,N/A,,Overcast,0,2012-12-09 12:56:00
5:56 AM,48.9,21.9,35,29.96,10.0,SSW,6.9,-,N/A,,Overcast,200,2012-12-09 13:56:00
6:56 AM,46.9,21.9,37,29.97,10.0,SSW,5.8,-,N/A,,Mostly Cloudy,210,2012-12-09 14:56:00
7:56 AM,55.0,21.0,27,30.00,10.0,WNW,5.8,-,N/A,,Mostly Cloudy,300,2012-12-09 15:56:00
8:56 AM,55.0,19.9,25,30.06,10.0,ENE,8.1,-,N/A,,Mostly Cloudy,60,2012-12-09 16:56:00
9:56 AM,55.9,19.9,25,30.09,10.0,East,6.9,-,N/A,,Mostly Cloudy,100,2012-12-09 17:56:00
10:56 AM,57.0,19.9,24,30.11,10.0,East,11.5,-,N/A,,Mostly Cloudy,80,2012-12-09 18:56:00
11:56 AM,57.0,19.0,23,30.10,10.0,ESE,10.4,17.3,N/A,,Mostly Cloudy,110,2012-12-09 19:56:00
12:56 PM,59.0,19.0,21,30.10,10.0,Variable,6.9,-,N/A,,Mostly Cloudy,0,2012-12-09 20:56:00
1:56 PM,59.0,19.0,21,30.09,10.0,NNE,9.2,-,N/A,,Mostly Cloudy,30,2012-12-09 21:56:00
2:56 PM,59.0,19.0,21,30.10,10.0,East,6.9,-,N/A,,Scattered Clouds,90,2012-12-09 22:56:00
3:56 PM,57.9,18.0,21,30.11,10.0,NE,13.8,19.6,N/A,,Scattered Clouds,50,2012-12-09 23:56:00
4:56 PM,54.0,17.1,23,30.13,10.0,NE,10.4,-,N/A,,Scattered Clouds,40,2012-12-10 00:56:00
5:56 PM,52.0,16.0,24,30.16,10.0,NNE,9.2,-,N/A,,Scattered Clouds,30,2012-12-10 01:56:00
6:56 PM,50.0,16.0,26,30.20,10.0,NE,12.7,-,N/A,,Partly Cloudy,40,2012-12-10 02:56:00
7:56 PM,48.9,16.0,27,30.21,10.0,NE,6.9,-,N/A,,Clear,40,2012-12-10 03:56:00
8:56 PM,46.9,17.1,30,30.23,10.0,North,4.6,-,N/A,,Clear,360,2012-12-10 04:56:00
9:56 PM,46.0,17.1,31,30.25,10.0,North,4.6,-,N/A,,Clear,360,2012-12-10 05:56:00
10:56 PM,46.0,17.1,31,30.25,10.0,Calm,Calm,-,N/A,,Clear,0,2012-12-10 06:56:00
11:56 PM,45.0,17.1,33,30.26,10.0,Calm,Calm,-,N/A,,Clear,0,2012-12-10 07:56:00